Wind_Speed
46 50 52 47 41 37 35 36 38 38 39 40 39 35 31 29 28 27 26 26 25 24 22 20 18 17 16 16 16 16 17 19 21 23 24 25 26 27 28 29 29 29 30
46 46 42 35 32 32 35 38 39 40 41 40 38 35 33 31 28 27 26 25 24 22 20 19 17 16 17 17 17 17 18 20 22 24 24 24 25 27 28 30 31 31 30
39 38 29 20 23 29 33 37 40 41 41 39 37 35 34 33 30 27 24 23 22 22 21 20 20 20 20 19 19 19 19 20 23 25 26 25 24 26 28 30 31 32 32
40 41 35 30 30 31 35 37 39 39 38 36 35 34 32 30 29 26 24 22 21 22 22 23 23 24 23 22 21 20 19 20 22 25 27 28 27 26 26 29 31 33 33
41 41 39 37 36 38 39 35 33 32 31 31 31 29 27 26 26 26 25 23 22 23 24 25 27 28 27 26 24 22 22 21 23 24 26 28 28 28 26 26 29 32 33
38 39 38 38 39 38 36 32 31 31 30 30 29 28 26 25 25 27 27 26 26 25 25 27 29 30 30 28 26 25 24 24 24 25 26 27 27 28 28 25 26 30 31
35 35 36 36 37 38 37 36 34 34 34 34 33 32 30 29 28 29 30 30 31 30 29 29 30 31 31 30 29 28 27 26 26 26 26 26 27 27 27 26 25 27 30
38 39 40 40 41 40 40 40 40 40 40 40 40 40 39 37 36 34 33 33 34 35 35 34 34 34 34 33 31 30 29 28 28 27 26 26 27 27 27 26 26 27 28
42 44 45 45 46 47 46 46 46 46 47 47 47 47 47 47 46 45 43 41 39 38 38 37 37 37 36 36 34 32 31 29 29 28 27 26 26 27 27 26 26 26 27
46 47 49 50 50 51 52 52 53 53 54 55 55 55 55 55 55 54 53 51 48 45 43 40 39 39 39 38 36 34 32 30 30 30 29 27 26 26 26 26 25 25 25
49 51 52 53 54 55 56 57 57 58 60 61 62 62 62 62 62 61 60 59 57 54 51 48 45 43 41 40 38 35 32 30 30 30 29 27 25 25 26 25 24 23 24
53 54 56 57 57 58 59 60 61 62 63 64 65 66 67 66 66 66 66 65 63 60 57 54 53 50 46 43 41 39 35 32 30 29 28 27 25 25 25 24 22 22 22
59 62 63 63 63 64 65 66 67 67 68 68 69 69 70 70 70 69 68 68 67 65 62 58 56 54 52 48 45 43 39 35 32 30 28 26 25 24 24 23 22 21 21
65 66 67 68 69 70 71 72 74 75 76 77 77 77 77 77 76 75 73 72 71 69 67 64 61 58 56 53 49 46 42 37 34 31 28 26 25 24 23 22 21 20 19
68 70 72 74 76 78 78 78 77 76 75 75 76 78 80 81 82 82 81 79 76 75 72 70 67 65 61 57 53 51 47 42 37 33 29 27 25 24 23 21 21 20 18
72 75 78 79 78 74 70 64 59 55 53 52 53 55 58 62 68 72 77 80 81 81 79 76 72 68 66 63 59 56 52 47 42 36 33 30 27 25 24 22 21 20 19
77 78 75 69 61 53 48 44 41 38 37 35 33 32 32 33 36 41 48 56 64 71 75 75 72 69 65 63 61 58 55 52 48 42 37 33 30 27 25 23 22 20 18
75 68 57 49 43 41 40 40 40 40 40 40 39 38 37 34 33 32 31 31 34 42 50 57 63 65 65 63 59 55 54 52 49 44 39 35 32 30 27 24 22 20 18
59 49 43 40 40 41 42 43 44 45 45 45 45 45 43 41 39 36 33 32 31 30 31 35 43 51 57 61 61 58 55 52 49 45 40 37 35 32 29 27 24 21 20
47 43 42 43 44 46 48 49 49 49 49 48 48 48 47 45 43 40 37 35 34 32 30 30 32 36 45 53 58 59 58 56 51 46 42 39 36 34 32 30 26 23 21
45 45 47 49 51 52 53 54 53 53 51 50 49 48 47 46 44 42 40 38 37 35 33 32 31 32 36 44 53 57 58 56 53 49 45 41 39 36 35 33 29 26 23
49 51 53 55 56 56 56 55 54 53 52 51 49 48 47 46 44 43 41 41 39 37 35 33 32 32 32 36 45 53 55 52 51 50 48 45 42 40 37 35 32 28 25
54 56 57 58 57 57 57 56 55 53 52 51 49 47 46 44 43 42 42 41 40 38 36 34 33 32 31 33 39 49 54 51 49 49 48 46 44 42 39 37 34 30 27
58 59 58 57 55 54 53 54 53 52 51 49 47 45 43 42 40 40 40 39 39 38 36 34 33 32 30 31 35 46 54 52 48 47 47 46 46 43 40 37 34 31 27
60 59 59 57 55 53 52 50 49 47 46 43 41 39 37 36 36 36 35 35 35 34 33 31 31 30 28 27 31 41 53 54 48 47 46 45 43 40 38 36 33 30 27
60 60 59 57 53 50 47 44 41 39 37 34 33 32 31 31 32 32 31 31 31 31 30 30 29 27 24 23 26 35 48 54 48 46 46 43 39 37 35 33 31 29 27
Wind_Direction
277 274 271 263 262 268 275 280 285 291 296 300 301 298 296 296 293 289 287 285 284 282 281 280 277 279 284 288 292 300 308 314 316 315 310 303 295 286 277 270 266 264 262
272 268 254 244 247 263 272 277 285 291 295 297 297 296 295 294 291 288 284 280 279 279 278 276 275 276 280 285 290 298 307 315 320 321 319 311 301 291 282 273 266 263 263
269 270 265 259 272 271 273 280 285 289 293 294 294 293 292 290 286 283 280 275 274 272 272 269 271 272 273 277 282 290 299 309 316 321 323 319 309 297 288 277 268 261 261
289 287 288 290 288 286 287 288 288 288 290 292 293 292 289 285 283 281 278 272 269 271 270 268 269 271 273 275 279 284 294 304 311 317 321 321 316 306 293 282 271 262 258
293 292 296 296 295 296 295 293 288 286 286 289 291 290 289 287 284 281 278 275 274 276 275 273 271 272 273 275 277 281 288 298 306 313 318 320 317 310 300 286 273 263 258
293 293 296 296 296 297 297 299 293 287 285 288 290 289 288 287 286 283 280 279 279 277 277 276 274 272 271 273 276 279 284 291 299 306 313 316 316 312 305 294 277 265 258
297 297 297 296 296 295 293 294 292 288 287 287 287 285 284 283 281 280 281 283 283 282 280 279 276 273 272 273 276 279 282 287 293 300 307 313 314 312 307 297 282 269 260
298 298 298 297 295 293 290 287 286 284 283 283 283 281 280 279 278 277 277 278 278 279 280 280 277 274 271 272 275 278 280 284 289 295 301 308 312 312 308 300 286 273 263
298 297 295 294 293 291 289 286 283 281 279 279 278 277 277 276 275 274 272 270 270 272 274 275 274 272 270 270 272 274 276 279 284 289 294 301 308 311 308 301 290 276 264
298 296 294 292 291 289 287 285 283 280 278 277 276 275 274 274 273 272 271 270 268 267 267 268 269 268 267 266 268 269 271 274 279 283 288 294 303 309 309 303 293 281 268
296 295 293 292 291 289 287 285 282 280 278 277 275 274 273 272 271 270 269 268 268 266 264 264 264 266 266 264 263 264 266 271 275 280 284 290 298 305 310 305 296 286 273
295 294 293 292 292 290 288 286 284 281 279 277 275 273 272 271 270 269 269 268 267 266 265 264 263 263 264 264 262 261 262 266 272 275 279 285 292 301 308 309 300 290 278
296 295 295 295 294 292 289 287 285 282 279 277 275 273 271 270 269 267 267 266 266 266 265 264 263 262 261 262 261 260 259 261 265 270 274 280 287 295 304 307 303 293 281
299 299 298 297 294 292 290 288 286 283 280 278 275 272 270 267 266 265 264 264 263 263 263 263 262 262 260 258 257 257 256 256 260 264 269 276 283 289 298 302 301 294 283
301 301 299 297 295 294 291 290 288 286 284 281 278 274 271 268 265 263 262 261 261 261 262 263 263 262 259 254 252 252 253 253 255 258 264 272 278 283 290 295 296 292 283
304 303 301 298 296 294 293 293 292 292 292 291 289 285 278 272 267 264 262 260 259 259 260 261 261 261 258 253 250 250 250 249 250 254 260 267 273 276 281 287 289 288 281
307 305 302 301 299 297 296 296 297 298 298 299 300 299 295 287 280 273 267 262 259 258 259 259 259 257 255 252 248 248 248 249 250 250 255 262 268 271 273 278 281 281 278
309 307 306 305 304 303 301 299 298 296 295 293 292 291 291 290 286 281 276 272 266 261 258 256 255 254 252 249 247 245 245 245 244 244 249 256 262 266 268 270 274 275 273
312 311 310 308 307 306 305 303 300 296 293 291 289 287 286 286 285 282 277 273 272 269 265 260 254 250 247 245 243 242 242 241 240 240 244 249 254 260 263 264 266 268 268
317 314 311 308 307 305 303 301 299 296 293 291 288 285 284 282 280 278 274 270 269 269 269 267 260 252 244 238 236 235 236 236 236 236 238 241 247 254 258 260 260 261 261
317 313 309 307 305 303 301 300 298 296 293 290 287 284 282 280 277 273 269 267 265 265 266 267 264 256 246 237 230 226 226 228 230 231 232 235 241 247 252 254 254 254 255
318 313 310 307 305 303 300 298 296 294 291 288 285 282 280 278 274 270 267 264 263 261 261 263 264 261 253 242 229 220 216 218 223 226 228 232 236 241 244 247 249 249 248
319 315 312 309 306 303 301 298 294 292 290 287 285 282 278 275 272 268 264 260 259 257 257 257 258 257 254 247 233 218 211 211 215 220 223 225 229 232 236 239 242 243 241
321 318 315 313 310 306 303 299 295 292 289 287 285 282 277 273 269 266 262 258 255 253 252 252 249 250 251 248 236 220 211 207 208 212 217 219 221 224 228 232 234 235 235
326 323 320 317 313 308 305 302 297 292 289 287 285 280 275 272 267 263 260 256 250 246 244 242 241 245 247 244 233 221 211 206 203 204 209 213 215 217 220 224 226 227 229
333 329 326 323 320 316 312 307 302 297 293 289 286 281 276 271 265 260 257 251 242 237 234 232 234 239 240 237 228 217 210 203 199 199 200 204 207 209 212 216 218 221 223
Height
5856 5848 5837 5829 5831 5838 5837 5836 5837 5837 5836 5836 5835 5834 5832 5831 5830 5829 5828 5827 5826 5826 5825 5825 5825 5825 5824 5823 5822 5821 5820 5819 5817 5815 5814 5812 5811 5811 5811 5812 5813 5814 5815
5838 5827 5815 5805 5817 5828 5832 5831 5831 5831 5830 5829 5828 5827 5825 5824 5824 5822 5822 5821 5820 5820 5820 5820 5820 5820 5819 5819 5817 5816 5814 5813 5811 5809 5807 5807 5806 5803 5803 5803 5805 5806 5807
5823 5813 5800 5794 5810 5821 5822 5823 5825 5824 5824 5823 5822 5821 5819 5817 5817 5816 5816 5815 5815 5815 5815 5815 5815 5815 5814 5813 5812 5811 5809 5808 5805 5802 5801 5800 5799 5797 5796 5795 5796 5798 5799
5825 5815 5805 5805 5811 5813 5813 5814 5817 5817 5816 5816 5815 5814 5813 5811 5810 5810 5809 5809 5809 5809 5809 5809 5809 5809 5809 5808 5807 5806 5804 5803 5800 5797 5794 5792 5791 5789 5788 5787 5787 5788 5790
5826 5819 5813 5811 5809 5809 5808 5807 5808 5809 5809 5809 5808 5807 5806 5806 5805 5804 5804 5804 5803 5803 5803 5803 5803 5803 5803 5802 5801 5800 5798 5797 5795 5792 5789 5786 5783 5781 5780 5780 5778 5779 5781
5823 5818 5814 5811 5808 5807 5805 5803 5802 5802 5802 5802 5801 5801 5801 5800 5799 5798 5797 5797 5797 5797 5797 5797 5797 5797 5797 5796 5795 5794 5792 5790 5788 5786 5784 5781 5778 5775 5772 5772 5771 5770 5772
5819 5814 5810 5807 5805 5803 5801 5798 5797 5796 5795 5794 5793 5793 5793 5793 5793 5792 5791 5791 5790 5790 5790 5790 5790 5789 5789 5789 5788 5787 5786 5784 5782 5780 5777 5775 5772 5768 5765 5764 5763 5763 5764
5814 5809 5805 5802 5798 5796 5794 5792 5790 5789 5787 5786 5784 5784 5784 5784 5784 5783 5783 5783 5782 5781 5781 5782 5782 5781 5781 5781 5781 5780 5779 5778 5776 5774 5771 5768 5765 5762 5759 5757 5756 5756 5757
5806 5802 5798 5794 5791 5787 5785 5783 5781 5778 5776 5775 5774 5772 5772 5772 5772 5772 5772 5772 5772 5772 5772 5773 5773 5773 5773 5773 5772 5772 5771 5770 5769 5767 5765 5762 5759 5756 5753 5751 5749 5749 5750
5798 5793 5788 5784 5780 5776 5772 5770 5767 5765 5763 5761 5760 5758 5757 5757 5757 5757 5757 5758 5759 5760 5761 5762 5762 5763 5763 5764 5764 5764 5763 5763 5762 5761 5759 5756 5753 5750 5747 5744 5742 5741 5742
5789 5783 5777 5772 5767 5763 5758 5755 5752 5749 5747 5745 5744 5742 5741 5740 5739 5740 5740 5741 5743 5745 5747 5749 5750 5751 5752 5753 5754 5755 5755 5755 5754 5753 5752 5749 5747 5744 5741 5738 5735 5734 5735
5778 5771 5765 5759 5754 5749 5743 5739 5735 5732 5730 5727 5725 5723 5722 5721 5721 5721 5721 5722 5724 5727 5730 5733 5736 5738 5740 5742 5743 5745 5746 5747 5746 5745 5744 5742 5741 5738 5735 5732 5729 5728 5728
5765 5758 5751 5745 5739 5733 5727 5721 5717 5713 5709 5707 5704 5703 5701 5701 5700 5700 5701 5702 5703 5707 5711 5714 5719 5723 5727 5729 5731 5734 5736 5737 5738 5737 5736 5735 5734 5732 5729 5727 5724 5722 5722
5750 5742 5735 5727 5719 5712 5706 5699 5694 5688 5684 5681 5679 5678 5677 5676 5677 5678 5679 5680 5682 5685 5689 5694 5699 5705 5710 5715 5718 5721 5724 5727 5728 5728 5728 5728 5727 5726 5724 5721 5719 5717 5717
5733 5724 5715 5705 5696 5688 5680 5672 5666 5660 5656 5652 5650 5648 5647 5647 5649 5651 5654 5656 5660 5663 5667 5672 5678 5684 5691 5697 5702 5707 5711 5715 5717 5719 5719 5719 5720 5719 5718 5716 5714 5713 5712
5714 5703 5692 5682 5671 5662 5654 5647 5641 5636 5631 5627 5624 5620 5619 5619 5620 5622 5625 5630 5635 5639 5644 5650 5656 5662 5669 5677 5684 5690 5696 5701 5705 5708 5709 5710 5712 5712 5711 5710 5709 5708 5707
5692 5679 5666 5656 5647 5640 5634 5630 5626 5622 5618 5614 5611 5607 5604 5602 5601 5601 5603 5605 5609 5614 5620 5626 5633 5641 5648 5656 5665 5672 5679 5686 5692 5696 5699 5701 5703 5704 5705 5705 5704 5703 5703
5667 5656 5646 5639 5633 5627 5622 5618 5614 5610 5606 5603 5600 5597 5595 5592 5591 5591 5591 5592 5592 5594 5597 5603 5610 5619 5628 5637 5646 5654 5662 5670 5677 5683 5688 5691 5694 5696 5697 5698 5698 5698 5698
5650 5641 5634 5628 5623 5617 5612 5607 5603 5598 5594 5590 5587 5585 5582 5581 5580 5580 5581 5581 5582 5582 5584 5586 5591 5597 5606 5615 5626 5636 5645 5654 5662 5669 5675 5680 5684 5687 5689 5691 5692 5693 5693
5640 5632 5625 5619 5613 5607 5600 5594 5589 5584 5579 5575 5572 5570 5568 5567 5567 5567 5568 5569 5570 5571 5573 5575 5577 5581 5587 5595 5605 5617 5627 5637 5647 5656 5663 5668 5673 5678 5681 5683 5685 5687 5688
5632 5623 5615 5607 5600 5593 5585 5579 5573 5567 5563 5559 5555 5553 5551 5550 5551 5552 5553 5555 5556 5559 5561 5563 5566 5568 5572 5578 5586 5598 5609 5619 5631 5641 5649 5656 5663 5668 5672 5676 5678 5680 5682
5623 5613 5603 5594 5585 5576 5568 5561 5555 5549 5544 5541 5538 5536 5534 5533 5534 5536 5538 5540 5542 5545 5548 5551 5554 5557 5560 5564 5571 5582 5593 5603 5615 5626 5635 5644 5651 5658 5663 5667 5671 5674 5676
5610 5599 5587 5577 5568 5558 5549 5542 5536 5530 5525 5522 5519 5518 5516 5516 5516 5518 5521 5524 5527 5531 5535 5539 5542 5546 5549 5553 5558 5567 5578 5589 5601 5612 5622 5631 5639 5647 5653 5658 5663 5667 5670
5596 5583 5571 5560 5550 5540 5530 5522 5516 5510 5506 5503 5501 5499 5498 5498 5499 5501 5504 5508 5512 5517 5522 5526 5531 5535 5539 5542 5547 5554 5565 5577 5589 5600 5610 5619 5627 5636 5643 5649 5655 5659 5663
5584 5569 5556 5543 5532 5522 5512 5504 5497 5491 5487 5485 5483 5482 5482 5482 5484 5486 5489 5493 5498 5503 5510 5515 5521 5525 5530 5533 5537 5543 5554 5567 5579 5589 5599 5609 5618 5627 5634 5641 5647 5652 5657
5571 5556 5542 5527 5515 5504 5495 5487 5480 5474 5471 5470 5468 5468 5468 5468 5470 5472 5476 5480 5486 5492 5499 5506 5512 5518 5522 5525 5529 5535 5545 5558 5570 5581 5591 5602 5611 5620 5627 5634 5640 5645 5651